星链-34687 (STARLINK-34687)

导读

STARLINK-34687是美国SpaceX星链互联网星座中的一颗卫星,于2025年7月26日发射升空,归属美国所有。它作为星链低轨卫星星座组网的组成部分,承担着为全球范围内用户提供低延迟、高速率的宽带互联网接入服务,进一步补全星链星座的全球覆盖能力,推动星链星座服务覆盖范围与稳定性的提升。

Basic Information
目录编号:
64909
目录名称:
STARLINK-34687
国际标识:
2025-157F
轨道中心:
EARTH
卫星名称:
星链-34687
卫星全名:
星链-34687 (STARLINK-34687)
卫星状态:
在轨 (已飞行405 天)
发射日期:
2025-07-26 UTC
国别 :
美国 (US)
星等 :
--
Orbit Information
数据来源 国际轨道数据
星历时间: 2026-09-02T14:39:04+0800
1天前
查看轨道信息
半长轴: 6840.848km
偏心率: 0.000098
轨道倾角: 53.157°
近地点辐角 79.263°
升交点赤经 243.060°
平近点角 280.849°
近地点: 462.04km
远地点: 463.382km
周期: 93.848分钟
每日圈数: 15.343975
Detailed Information
固有亮度:
5
最大亮度:
2.5
卫星平台:
Starlink V1.0
覆盖范围:
全球
运营商:
太空探索技术公司
运营商所在国:
美国
制造商(研发单位):
太空探索技术公司
制造商所在国:
美国
使用方式:
暂无
Satellite Introduction
Starlink 计划是 SpaceX 推出的全球卫星互联网项目,通过发射低轨道卫星,为全球尤其是偏远地区提供高速、低延迟的互联网服务。自 2019 年起,Starlink 已部署数千颗卫星,旨在缩小全球数字鸿沟,推动互联网普及。该项目还为军事、航空等行业提供通信支持,带来广泛经济效益。
2D Orbit Map
3D Orbit Map
Orbit Altitude Analysis Chart
Orbit Inclination Analysis Chart
Orbit Comprehensive Analysis Chart
View Comprehensive Chart
Conjunction Data List
Event ID Objects TCA Miss Dist (km) Collision Risk Probability Collision Risk Index (CRI) Action
CDM_260903-041506-490906-615621
2026-09-03T
04:15:25+0000
0.535 km
远距离
1.170096E-4 高风险 0.76
CDM_260904-143005-114906-490921
2026-09-04T
14:30:31+0000
0.451 km
远距离
8.827592E-5 中风险 0.74
CDM_260903-142506-490906-615621
2026-09-03T
14:25:03+0000
0.690 km
远距离
5.745709E-5 中风险 0.7
CDM_260904-182505-114906-490921
2026-09-04T
18:25:00+0000
1.357 km
极远距离
2.676324E-6 低风险 0.44
CDM_260904-165105-114906-490921
2026-09-04T
16:51:12+0000
1.477 km
极远距离
2.056195E-6 低风险 0.41
CDM_260904-030905-256306-490921
2026-09-04T
03:09:32+0000
2.811 km
极远距离
1.300298E-6 低风险 0.37
CDM_260904-203405-235306-490921
2026-09-04T
20:34:00+0000
2.836 km
极远距离
1.212073E-6 低风险 0.37
CDM_260903-024106-490906-615621
2026-09-03T
02:41:38+0000
2.562 km
极远距离
1.144298E-6 低风险 0.36
CDM_260904-125605-114906-490921
2026-09-04T
12:56:43+0000
2.458 km
极远距离
6.250001E-7 极低风险 0.31
CDM_260904-160405-114906-490921
2026-09-04T
16:04:18+0000
2.927 km
极远距离
4.976567E-7 极低风险 0.29